Wind_Speed
32 31 29 22 23 28 19 17 19 19 16 12 10 8 7 6 7 5 5 4 1 1 2 4 4 4 5 6 4 2 4 5 8 9 10 9 8 9 10 11 7 11 10 13 15
36 34 33 24 23 23 21 20 20 21 17 14 11 8 8 6 6 4 5 4 1 2 1 4 5 5 4 4 4 5 4 4 4 5 7 10 12 10 11 12 12 9 11 14 13
29 34 32 25 25 27 24 19 22 22 19 15 12 9 8 7 4 2 5 4 3 3 4 5 6 6 5 2 2 2 1 1 3 4 7 11 12 13 14 17 15 11 10 11 17
32 33 32 25 29 30 23 21 22 23 20 17 13 11 9 8 4 2 4 5 3 2 4 6 7 7 6 4 4 3 2 4 6 7 10 6 7 7 11 18 17 9 10 13 18
30 25 26 24 25 30 28 22 22 23 21 18 15 12 9 8 5 3 4 4 3 0 3 4 7 8 7 7 6 5 6 6 8 10 5 5 5 5 6 4 5 6 10 13 21
23 22 22 23 26 27 28 25 24 23 22 19 17 13 10 8 5 4 5 5 4 1 3 5 5 6 7 8 9 8 7 5 6 4 3 5 3 4 3 4 3 6 9 13 19
20 22 20 26 24 30 27 29 23 24 23 21 18 14 10 9 6 5 6 5 4 2 5 7 7 7 9 9 10 9 4 3 2 2 2 5 5 3 8 10 11 12 13 17 22
21 21 19 25 24 33 32 28 23 25 24 22 18 14 11 9 7 6 7 5 4 3 4 6 7 8 9 10 12 10 6 2 2 4 6 8 7 10 11 8 12 11 14 21 20
22 22 20 25 27 32 36 33 26 25 26 21 19 15 13 10 9 8 7 4 5 3 4 6 8 7 7 9 9 8 3 6 6 8 10 9 13 14 10 11 13 15 19 24 23
23 21 20 25 26 32 23 24 27 26 26 24 20 16 14 12 9 9 7 6 4 2 5 6 5 5 4 5 3 7 3 7 11 14 15 14 15 14 16 17 18 20 21 24 21
25 22 21 22 24 34 21 19 24 26 25 24 20 18 15 12 9 7 6 5 2 2 5 6 4 2 4 5 6 4 6 10 12 15 17 19 18 19 21 22 20 19 22 26 31
26 22 24 23 25 35 21 19 24 25 24 25 21 21 16 13 8 7 4 4 2 3 4 5 3 4 4 6 8 8 10 12 13 14 16 18 20 21 19 17 18 22 25 28 29
27 23 25 21 26 26 20 20 23 22 25 27 21 21 17 14 11 7 5 4 3 3 3 5 5 4 4 5 4 3 4 6 11 12 14 13 12 12 14 17 21 25 26 27 30
27 22 23 16 27 29 22 21 21 23 26 25 23 21 18 15 12 8 6 3 4 4 5 7 5 2 3 7 3 5 4 6 9 10 9 10 10 18 18 21 24 27 27 29 30
29 23 20 10 26 32 23 19 18 23 25 26 21 19 17 14 11 7 5 4 5 5 6 7 4 1 4 5 3 6 7 8 9 9 9 12 10 22 23 23 24 28 29 30 33
32 26 22 17 28 35 35 17 19 22 25 25 26 20 18 15 11 7 8 6 7 8 9 8 4 0 2 7 6 7 8 8 8 7 6 14 10 19 24 25 27 27 28 32 37
29 32 25 21 16 31 39 26 19 23 26 24 22 22 20 15 10 6 7 7 9 9 11 8 5 2 4 6 6 9 8 8 7 7 9 15 14 19 21 22 26 30 33 34 36
29 32 28 24 19 39 35 30 23 27 29 27 23 22 21 14 10 6 6 6 10 11 11 7 8 5 7 6 6 9 6 4 4 8 11 17 10 19 21 25 24 26 30 31 32
29 30 26 25 24 30 38 33 28 30 26 23 24 22 21 15 10 6 5 7 9 12 14 10 12 8 7 8 6 12 8 10 12 14 14 16 22 25 26 26 26 26 27 28 30
32 30 27 26 25 27 41 31 29 28 27 26 25 25 21 15 10 8 7 6 9 12 14 11 12 11 9 9 10 10 11 12 11 12 12 16 25 16 29 28 29 31 31 32 35
35 32 28 28 27 25 30 29 31 28 27 27 25 24 22 15 11 9 8 8 9 12 14 13 11 14 13 10 14 16 15 15 15 18 17 13 20 29 31 31 33 33 35 37 41
38 35 31 32 28 30 24 29 31 31 27 29 24 22 22 16 12 9 9 10 9 10 11 12 13 14 14 13 13 13 15 15 17 19 24 24 25 32 33 35 36 37 39 42 45
40 37 34 34 30 34 31 25 29 27 29 29 26 24 21 17 12 9 8 10 10 11 11 13 12 13 12 13 13 15 17 18 19 20 25 23 30 33 35 36 37 40 41 45 49
42 38 36 34 34 37 34 31 28 32 30 32 28 26 19 16 13 8 7 10 10 12 14 14 12 11 14 14 17 16 17 17 18 20 23 27 32 32 35 37 40 40 43 49 52
45 39 39 36 35 37 30 34 33 27 30 33 26 22 19 16 11 7 9 10 12 16 15 11 11 12 13 13 14 15 15 17 18 19 21 27 30 33 35 37 39 43 47 48 51
48 41 40 37 36 36 31 31 43 28 30 27 24 21 20 19 15 13 11 10 14 12 12 12 11 12 10 9 10 12 13 16 18 21 22 26 30 32 34 36 40 44 45 49 51
50 43 38 39 35 36 30 35 35 32 31 29 27 25 21 18 14 14 11 13 14 10 9 10 10 10 7 7 9 10 12 15 18 21 24 26 29 32 33 38 40 42 46 43 43
Wind_Direction
254 250 243 239 228 236 250 245 240 229 216 217 230 231 233 233 255 279 277 256 295 290 80 52 51 56 63 54 21 51 112 187 220 227 245 273 299 346 319 320 337 347 339 339 339
248 256 240 231 230 232 239 241 233 226 214 216 223 224 223 222 257 297 263 224 228 270 346 27 22 22 39 59 32 44 132 241 243 253 257 278 297 297 302 300 313 322 320 323 329
239 250 240 230 223 216 231 232 227 221 213 214 217 215 217 230 250 298 250 228 242 291 331 21 12 9 357 3 11 17 173 163 277 318 327 303 283 277 274 284 298 301 301 316 323
249 249 246 232 222 225 224 230 221 216 210 212 212 211 215 234 224 236 230 242 266 305 359 12 358 354 347 318 305 285 255 279 294 323 330 322 342 344 277 265 273 276 284 299 303
258 253 239 244 226 222 215 225 225 210 210 209 210 208 210 229 219 242 217 230 241 334 14 4 358 347 340 329 308 268 290 292 329 333 357 25 46 73 56 112 232 240 265 286 297
264 244 235 242 222 216 214 225 221 207 207 207 207 206 208 220 213 217 212 218 222 200 319 332 350 339 336 331 324 330 314 300 321 340 345 359 27 13 19 4 297 321 286 283 289
246 227 237 239 218 216 213 222 214 205 206 205 204 205 202 210 211 210 226 233 247 283 336 338 337 336 336 336 349 24 329 327 301 329 313 289 349 351 309 288 290 295 296 299 294
226 222 235 234 223 212 216 222 212 203 204 204 201 204 198 202 207 208 227 238 262 294 328 329 328 337 346 344 0 23 8 310 240 270 274 276 303 314 337 280 278 289 299 314 319
233 226 231 233 220 208 203 216 207 201 202 199 203 196 204 189 198 200 206 228 252 274 302 321 328 336 353 359 356 351 304 291 266 282 300 291 285 309 330 323 319 310 320 322 318
222 229 230 238 228 191 189 192 197 197 200 196 194 192 190 192 192 196 195 209 228 270 302 322 317 332 9 31 254 289 266 286 289 285 295 289 301 317 317 317 317 319 317 325 323
220 229 240 240 233 180 175 191 195 196 195 197 195 189 193 186 192 198 198 208 227 285 305 305 307 170 279 309 295 321 258 262 279 272 286 292 303 305 311 313 314 317 325 326 326
218 230 241 249 221 178 174 184 194 193 193 201 192 191 192 188 185 197 204 222 223 274 300 288 260 282 309 299 305 300 289 294 296 289 291 297 301 304 310 316 314 321 324 325 323
213 226 243 277 199 159 173 182 193 192 192 201 192 195 191 186 191 194 213 222 226 263 277 213 268 288 314 299 307 302 236 296 288 297 296 303 321 332 321 317 315 318 319 315 311
216 219 237 248 190 171 174 184 192 191 196 194 193 195 196 191 195 191 209 221 248 265 272 252 265 288 309 306 345 311 301 299 307 312 325 329 296 313 321 318 314 312 313 311 305
213 221 233 252 183 181 179 188 189 193 195 196 197 197 197 192 193 201 227 250 252 261 256 253 259 283 289 298 302 245 300 309 311 300 307 326 322 289 313 314 309 307 305 302 297
213 217 232 233 194 190 195 194 191 196 194 193 197 199 198 190 191 223 246 242 241 246 239 235 213 270 298 284 309 312 308 310 309 307 338 312 330 301 307 310 305 303 302 300 299
215 218 222 216 211 191 187 196 201 202 196 198 199 205 202 195 211 236 249 228 228 240 246 228 223 223 243 282 306 325 332 337 340 328 267 311 324 276 297 298 300 303 306 304 302
214 214 218 217 217 193 198 199 209 197 192 197 201 205 198 203 205 220 237 223 228 227 220 215 242 219 260 270 282 308 303 239 284 288 285 301 299 307 309 308 307 305 304 304 303
210 207 213 214 212 196 202 199 203 198 194 195 203 210 203 210 211 224 232 224 231 227 214 215 239 257 260 281 286 293 294 299 301 306 317 274 314 310 315 313 310 311 306 304 302
205 204 207 209 214 209 204 197 198 196 198 204 206 207 207 207 213 226 248 227 229 227 228 231 251 269 271 290 293 286 299 322 315 307 308 301 314 303 317 317 318 318 316 313 312
203 200 203 207 216 208 203 195 195 197 198 200 205 204 211 212 210 228 244 233 228 232 234 230 247 268 270 278 290 298 302 304 300 300 302 312 290 311 319 321 321 320 318 319 319
203 201 203 204 212 197 190 198 195 200 203 206 207 202 210 211 205 227 242 239 233 235 234 240 249 254 269 282 285 284 294 295 297 301 313 320 309 322 323 321 322 322 324 323 320
202 201 202 202 208 194 199 200 196 198 203 203 213 203 208 206 206 232 246 253 244 238 241 246 254 275 287 295 295 292 288 292 303 313 312 319 310 318 321 323 323 325 325 323 324
199 202 204 203 207 201 203 205 195 199 201 202 199 202 197 198 200 215 252 250 231 234 245 258 267 267 277 293 295 291 296 304 311 312 314 322 317 322 323 324 327 328 328 326 324
198 201 203 202 205 205 193 204 204 191 198 196 195 192 194 195 202 234 248 229 219 226 238 247 264 277 282 282 283 293 302 308 313 317 317 318 322 326 328 330 331 330 330 328 325
199 201 202 203 204 207 216 213 206 198 199 189 190 197 196 200 206 226 230 228 230 232 239 245 261 275 276 280 290 300 310 318 322 323 326 325 327 332 334 333 335 334 333 332 332
198 202 203 199 199 205 211 202 209 194 195 192 192 200 203 206 208 229 240 228 238 237 232 246 257 264 270 295 301 312 319 324 326 330 328 332 337 337 335 339 343 339 337 338 344
Height
5871 5874 5876 5880 5881 5887 5889 5890 5892 5895 5896 5898 5898 5899 5901 5901 5902 5903 5904 5905 5904 5902 5901 5901 5902 5901 5901 5901 5901 5902 5905 5907 5904 5904 5904 5904 5905 5905 5904 5903 5902 5898 5896 5892 5889
5867 5869 5872 5876 5877 5881 5886 5887 5889 5892 5894 5896 5897 5898 5899 5900 5901 5901 5904 5904 5903 5902 5901 5901 5902 5902 5902 5901 5902 5902 5904 5903 5903 5903 5904 5903 5902 5903 5903 5902 5900 5898 5895 5892 5889
5864 5864 5867 5871 5873 5878 5882 5883 5886 5889 5892 5894 5895 5896 5898 5899 5900 5900 5903 5903 5903 5902 5902 5901 5902 5902 5902 5901 5902 5902 5903 5902 5902 5903 5902 5901 5901 5901 5901 5898 5898 5896 5894 5892 5889
5857 5860 5863 5865 5868 5873 5876 5880 5883 5886 5890 5892 5893 5894 5897 5898 5899 5899 5901 5902 5902 5902 5902 5901 5901 5901 5901 5901 5901 5901 5900 5901 5902 5902 5901 5900 5898 5896 5895 5895 5895 5894 5893 5890 5886
5852 5855 5858 5861 5864 5868 5871 5876 5880 5883 5887 5889 5891 5893 5895 5896 5896 5898 5900 5900 5901 5901 5901 5901 5901 5900 5900 5900 5900 5899 5899 5900 5901 5900 5899 5899 5898 5897 5894 5893 5892 5892 5890 5888 5884
5847 5850 5854 5856 5859 5863 5866 5873 5876 5880 5884 5887 5889 5891 5893 5895 5895 5897 5899 5899 5900 5899 5900 5900 5900 5900 5899 5899 5899 5899 5899 5900 5900 5900 5899 5898 5897 5896 5894 5893 5892 5890 5888 5884 5880
5843 5847 5849 5852 5854 5858 5862 5868 5872 5876 5881 5884 5887 5889 5890 5893 5893 5895 5897 5897 5898 5898 5898 5899 5899 5899 5898 5898 5899 5899 5899 5899 5899 5900 5899 5898 5897 5895 5894 5891 5890 5887 5884 5880 5874
5839 5844 5845 5847 5849 5853 5858 5864 5868 5873 5878 5881 5884 5887 5888 5891 5892 5893 5895 5896 5897 5897 5897 5897 5897 5897 5896 5897 5898 5898 5898 5899 5899 5899 5899 5898 5896 5894 5891 5887 5886 5883 5881 5877 5873
5836 5840 5841 5844 5845 5849 5854 5860 5866 5870 5874 5878 5883 5884 5887 5888 5890 5892 5893 5894 5896 5895 5896 5896 5896 5896 5897 5897 5898 5898 5901 5900 5899 5899 5898 5897 5894 5893 5890 5886 5883 5881 5878 5874 5868
5833 5836 5838 5839 5840 5844 5851 5856 5861 5866 5871 5875 5879 5883 5886 5887 5888 5890 5891 5892 5894 5894 5895 5895 5895 5896 5896 5898 5906 5900 5900 5900 5898 5899 5897 5895 5892 5890 5887 5884 5881 5877 5874 5871 5866
5829 5832 5834 5835 5834 5838 5845 5851 5859 5865 5868 5873 5877 5880 5883 5885 5887 5889 5889 5891 5892 5892 5893 5894 5895 5897 5896 5897 5898 5898 5899 5898 5898 5897 5895 5893 5890 5887 5884 5881 5877 5874 5872 5868 5862
5826 5828 5830 5830 5829 5831 5842 5848 5855 5860 5864 5870 5873 5878 5881 5882 5885 5887 5888 5891 5890 5891 5892 5894 5894 5893 5894 5895 5895 5896 5896 5895 5895 5894 5893 5890 5888 5885 5881 5877 5874 5871 5868 5865 5860
5823 5826 5826 5825 5826 5831 5839 5847 5852 5856 5862 5868 5870 5875 5879 5881 5883 5884 5887 5889 5888 5889 5891 5893 5893 5892 5893 5893 5894 5894 5895 5893 5892 5891 5889 5887 5884 5882 5879 5875 5871 5868 5865 5861 5857
5818 5822 5824 5824 5825 5830 5838 5845 5849 5855 5861 5865 5869 5873 5877 5878 5882 5883 5885 5888 5887 5888 5890 5891 5891 5891 5892 5892 5893 5893 5892 5891 5889 5888 5891 5886 5889 5881 5876 5871 5867 5864 5861 5858 5852
5815 5818 5822 5821 5823 5829 5837 5843 5847 5852 5858 5862 5866 5871 5874 5878 5880 5882 5884 5884 5885 5886 5889 5890 5890 5891 5892 5892 5891 5891 5890 5889 5888 5887 5886 5884 5883 5876 5873 5869 5863 5860 5857 5853 5847
5811 5815 5817 5821 5822 5825 5833 5840 5845 5851 5854 5859 5864 5869 5873 5875 5878 5880 5882 5882 5884 5884 5887 5888 5889 5890 5890 5889 5889 5888 5888 5887 5887 5886 5887 5883 5882 5877 5871 5867 5861 5857 5853 5848 5842
5807 5810 5816 5818 5821 5823 5830 5838 5844 5846 5852 5857 5862 5867 5871 5873 5876 5878 5880 5880 5882 5884 5885 5887 5888 5888 5889 5889 5888 5887 5887 5889 5889 5888 5889 5881 5878 5874 5870 5864 5859 5853 5847 5843 5837
5802 5806 5811 5815 5817 5822 5828 5836 5841 5845 5849 5855 5860 5865 5868 5872 5874 5876 5878 5878 5880 5882 5884 5887 5888 5888 5888 5888 5888 5886 5887 5888 5887 5888 5887 5877 5877 5869 5866 5861 5856 5851 5845 5838 5833
5796 5802 5807 5811 5815 5818 5825 5832 5836 5841 5847 5853 5858 5862 5866 5870 5873 5874 5875 5875 5877 5879 5883 5884 5884 5885 5886 5886 5887 5885 5885 5883 5882 5879 5878 5877 5869 5866 5861 5856 5852 5846 5841 5836 5830
5791 5797 5804 5808 5811 5816 5822 5828 5833 5839 5844 5850 5855 5860 5865 5867 5870 5871 5873 5873 5875 5877 5879 5881 5882 5883 5884 5884 5884 5883 5882 5881 5880 5878 5876 5874 5866 5864 5857 5852 5846 5840 5834 5827 5821
5787 5793 5799 5804 5808 5812 5815 5824 5830 5836 5842 5847 5853 5858 5863 5864 5866 5868 5870 5870 5872 5875 5877 5879 5881 5881 5881 5882 5881 5879 5878 5876 5875 5873 5871 5870 5865 5857 5852 5847 5840 5834 5827 5820 5812
5780 5788 5794 5801 5806 5809 5815 5820 5826 5832 5838 5845 5851 5855 5859 5862 5863 5865 5866 5867 5870 5872 5874 5876 5878 5878 5877 5877 5877 5876 5874 5873 5871 5869 5865 5863 5856 5852 5847 5841 5834 5827 5820 5811 5803
5775 5784 5790 5796 5801 5806 5812 5818 5823 5829 5835 5841 5848 5853 5856 5858 5860 5863 5864 5866 5867 5870 5871 5872 5874 5874 5874 5874 5872 5871 5870 5868 5867 5865 5860 5859 5852 5847 5841 5835 5828 5821 5813 5803 5794
5770 5777 5784 5791 5798 5803 5809 5815 5821 5826 5833 5840 5845 5850 5852 5854 5857 5859 5861 5863 5865 5866 5868 5869 5871 5872 5872 5871 5868 5867 5866 5864 5863 5861 5858 5853 5847 5842 5837 5830 5823 5815 5806 5796 5785
5763 5771 5779 5785 5792 5798 5804 5811 5818 5823 5830 5836 5840 5845 5848 5851 5854 5857 5859 5861 5862 5863 5865 5867 5867 5868 5867 5866 5865 5864 5862 5861 5860 5857 5855 5849 5844 5837 5832 5825 5818 5809 5800 5789 5778
5757 5766 5774 5781 5787 5793 5799 5807 5812 5820 5827 5833 5838 5842 5845 5849 5851 5854 5857 5858 5860 5861 5863 5863 5864 5864 5863 5863 5862 5861 5859 5858 5855 5852 5849 5844 5839 5833 5827 5821 5813 5803 5793 5782 5772
5751 5760 5768 5776 5782 5789 5796 5803 5807 5816 5824 5829 5834 5838 5842 5846 5848 5851 5853 5855 5857 5858 5860 5861 5861 5861 5860 5860 5859 5859 5856 5854 5851 5848 5845 5840 5835 5830 5823 5816 5808 5798 5788 5778 5766